GFSSW_700_spd_021.txt.gz
Wind_Speed
36 35 34 33 34 36 38 40 40 40 45 46 44 42 39 35 37 39 37 24 21 25 26 27 25 22 22 19 25 21 22 24 23 24 15 13 13 15 14 18 19 27 22 19 22
39 39 39 39 39 39 41 42 41 42 41 46 49 48 46 44 44 45 35 26 26 28 29 27 28 27 26 23 29 28 31 29 24 29 25 19 17 16 16 17 18 28 30 27 24
40 41 41 42 43 45 47 47 47 46 45 43 44 50 51 51 51 50 40 36 28 28 27 25 28 29 30 29 32 35 37 26 29 29 33 28 28 20 23 26 20 24 29 27 24
40 40 41 42 43 44 45 45 45 46 46 47 45 45 51 55 56 49 45 39 33 32 30 27 31 33 30 32 25 39 37 35 29 29 35 36 34 30 24 25 23 25 36 29 26
42 43 43 43 44 43 43 43 42 42 44 45 46 47 47 56 67 51 47 41 39 36 29 30 33 33 34 29 30 42 35 36 38 36 36 37 36 35 31 23 25 23 34 30 30
43 44 45 46 47 46 45 45 42 42 43 44 46 48 51 62 51 48 50 55 42 35 30 29 27 28 36 34 37 34 40 38 38 40 43 40 43 37 35 26 31 32 30 30 30
34 38 41 44 45 46 47 47 45 44 44 43 46 49 56 60 44 42 49 56 52 47 40 31 26 29 34 35 35 36 41 40 43 42 40 39 47 43 33 29 34 30 31 34 33
29 29 29 30 32 37 41 44 45 45 46 46 47 48 65 49 46 48 44 51 53 49 44 35 31 33 35 36 36 36 39 45 42 38 44 37 50 42 33 34 36 33 32 33 36
29 29 28 28 27 27 27 28 33 42 43 44 48 50 65 52 49 40 42 42 41 45 46 37 42 44 42 38 37 36 46 44 48 43 38 34 44 41 37 36 36 26 32 37 30
33 30 30 30 28 27 26 24 24 29 35 42 46 48 47 18 6 37 43 41 43 48 43 42 42 43 44 42 37 40 43 47 49 35 27 30 36 38 34 29 26 26 28 27 26
32 32 31 31 29 27 25 25 24 27 35 41 43 46 37 10 29 37 21 37 42 47 53 46 43 56 50 48 45 41 36 38 43 37 29 28 28 31 22 26 24 26 22 25 19
28 30 31 30 29 29 27 23 27 29 37 36 45 55 43 32 22 20 35 28 44 55 49 48 63 57 48 45 43 43 40 45 43 37 28 29 31 26 23 21 21 24 27 29 26
23 24 25 28 29 27 25 21 24 29 37 42 35 45 45 43 43 32 28 37 35 49 58 63 63 55 49 49 45 47 47 45 43 27 28 31 36 23 19 20 21 15 17 18 22
22 22 22 22 22 21 19 21 21 24 25 34 26 19 21 38 57 42 36 32 36 40 49 58 61 30 51 54 49 47 44 40 37 32 23 2 9 19 22 24 17 17 20 23 24
24 23 22 22 20 17 20 20 16 10 5 5 6 7 8 26 31 39 47 37 37 37 38 48 48 51 35 47 49 50 41 36 32 32 29 31 16 33 22 22 17 20 18 15 13
24 24 23 20 18 20 18 18 15 10 8 6 6 12 12 10 28 16 40 52 39 32 34 43 38 40 60 40 37 38 37 26 28 32 21 40 18 17 26 24 20 16 11 9 10
30 27 24 23 17 18 17 16 14 11 10 3 12 16 15 4 8 29 14 47 58 37 45 35 33 32 37 44 36 36 32 5 7 9 7 25 18 35 20 12 19 16 17 14 13
28 26 23 23 20 18 16 17 14 9 25 23 23 20 12 16 7 21 27 27 57 51 25 34 24 44 38 37 38 42 38 15 6 4 5 26 11 26 19 14 19 22 21 15 11
27 21 21 18 15 17 17 15 11 21 9 15 21 13 13 19 17 6 25 25 30 50 23 29 32 11 45 35 35 34 47 38 5 6 0 13 29 32 24 24 24 17 16 17 8
27 20 13 10 9 6 13 17 17 11 7 10 11 7 17 22 20 17 5 3 15 31 35 11 22 33 14 35 45 40 29 29 31 5 4 6 12 18 16 7 8 12 13 14 9
24 15 9 7 4 7 12 17 19 22 17 14 13 14 15 16 14 19 6 4 6 14 42 29 12 10 32 38 47 44 32 32 29 18 5 2 9 18 16 15 14 13 14 9 5
18 11 13 7 6 6 9 15 17 19 15 18 25 19 14 14 14 16 13 7 14 9 14 38 16 18 35 15 28 41 45 31 27 15 28 14 19 4 9 15 20 17 14 9 6
17 11 20 9 6 9 6 11 7 8 3 9 14 11 12 13 11 6 7 8 12 11 11 14 26 18 7 21 20 41 52 51 35 15 17 15 18 23 24 12 19 20 14 9 5
21 13 13 17 14 11 10 9 15 7 10 8 13 13 13 14 10 14 22 16 19 19 12 5 19 38 22 14 38 35 41 43 40 36 34 33 28 23 16 14 15 21 15 11 4
22 13 12 13 10 9 11 7 13 12 7 7 11 7 12 14 18 16 14 23 20 18 11 12 10 26 46 41 13 32 34 46 48 44 37 41 32 25 20 20 17 20 16 12 5
21 18 17 5 9 9 8 7 10 16 16 8 11 11 13 13 12 17 15 14 18 12 10 13 9 15 33 41 48 25 22 37 51 46 41 37 34 29 22 23 23 23 13 8 7
21 22 18 14 10 10 10 12 11 15 4 14 13 14 14 17 16 13 13 12 17 23 23 15 11 18 18 30 34 32 40 26 39 47 50 41 39 31 27 23 26 24 14 8 8

GFSSW_700_spd_024.txt.gz
Wind_Speed
37 39 39 38 37 36 35 37 41 44 45 45 47 48 47 43 39 37 34 20 17 32 35 31 26 22 22 23 25 22 24 26 25 22 19 19 20 16 18 19 16 16 15 20 22
39 40 41 41 42 42 41 40 39 42 44 45 45 45 48 50 49 49 32 27 22 32 32 34 40 33 27 28 30 33 36 29 31 25 24 25 27 25 26 21 23 22 16 19 22
39 40 41 42 42 43 44 45 45 44 45 47 47 46 46 46 53 52 43 38 30 29 32 36 42 36 33 33 35 39 45 32 29 24 26 28 27 33 32 33 29 26 21 21 22
41 42 42 42 43 43 43 45 46 47 48 49 50 50 48 49 51 46 50 46 40 35 35 36 39 37 41 44 41 47 45 35 27 27 33 34 38 34 33 36 34 29 23 23 23
41 42 44 45 45 45 45 45 45 46 47 49 49 51 50 55 58 40 40 45 46 48 40 37 39 38 41 42 39 47 39 37 33 34 31 35 40 40 40 36 37 33 26 22 26
39 41 43 44 45 45 45 46 46 46 46 48 49 52 53 64 50 43 47 47 47 42 42 43 37 38 41 40 43 44 39 37 34 35 32 38 41 43 44 43 45 37 28 25 26
33 34 35 35 35 39 42 44 45 46 47 49 49 50 57 63 45 37 45 46 40 40 42 35 32 34 39 41 42 39 39 39 39 33 38 37 50 49 48 46 41 34 29 29 28
32 33 33 33 33 32 32 31 33 42 46 46 48 51 63 56 49 49 43 35 44 39 41 41 37 34 40 36 33 32 36 38 36 32 36 39 52 51 44 37 33 33 33 28 28
30 31 33 33 32 31 32 30 33 32 33 38 45 48 62 55 51 43 46 48 39 41 48 38 34 38 42 39 38 36 40 39 38 27 38 41 47 38 32 31 32 31 29 25 25
32 30 28 30 32 32 31 28 33 35 33 30 36 42 45 17 23 36 46 48 43 44 41 53 50 49 50 48 41 37 36 40 37 37 40 39 41 41 28 25 23 25 19 21 22
27 27 29 29 28 30 30 28 34 36 35 32 31 31 33 19 24 35 20 40 47 45 49 44 51 68 68 61 49 41 40 43 39 40 37 41 37 41 30 27 21 16 16 18 21
25 24 25 25 27 26 28 27 32 33 39 33 33 40 38 27 34 24 42 30 38 51 49 45 62 65 58 55 47 44 46 49 44 44 37 39 39 31 27 22 19 14 16 19 21
25 24 24 23 23 22 23 23 26 28 35 39 35 39 31 32 46 36 28 38 36 45 56 61 63 58 51 50 46 47 52 45 47 30 24 33 41 37 23 22 18 15 10 9 15
25 24 24 23 21 20 21 22 21 22 21 34 18 7 10 23 45 41 36 33 36 40 48 56 62 26 52 55 52 54 50 45 44 36 19 8 12 34 24 21 21 12 12 13 18
28 28 28 27 22 19 20 20 16 11 5 4 6 4 16 15 16 29 41 33 35 39 38 50 48 62 40 42 50 54 43 44 41 38 31 29 17 28 29 22 24 17 17 15 14
27 28 29 26 21 21 19 14 12 5 8 5 8 11 15 17 14 10 53 43 42 31 40 43 31 36 62 41 34 35 16 22 26 23 13 28 20 29 31 28 24 19 11 8 8
27 26 28 24 21 19 17 11 7 9 6 4 9 19 18 22 3 16 15 54 40 33 35 30 34 18 26 41 35 30 24 4 5 6 5 21 16 35 12 9 21 17 13 11 10
28 29 26 22 20 18 15 11 10 5 17 24 21 19 15 24 12 8 15 19 50 27 17 22 12 31 28 39 35 38 37 16 8 4 4 18 14 17 15 13 10 10 13 12 11
29 27 21 16 12 10 9 10 5 9 10 14 18 14 11 14 16 19 6 8 6 43 18 24 24 13 26 28 35 37 38 32 11 8 2 11 11 22 21 13 10 13 11 14 13
28 21 16 9 7 5 3 8 10 8 10 9 13 9 8 14 13 17 8 8 5 11 42 19 13 30 22 29 32 38 35 28 24 6 4 6 9 13 15 17 5 7 10 10 16
25 17 19 12 7 5 7 7 13 11 14 17 13 13 13 14 8 12 11 7 14 1 26 35 11 11 32 38 40 33 35 21 26 13 5 1 8 15 14 8 9 4 6 11 13
22 16 21 11 8 6 4 11 12 9 4 14 16 17 14 10 8 9 11 17 12 15 3 26 15 17 29 31 35 42 42 43 24 20 16 3 5 19 16 13 14 12 9 14 10
24 14 15 13 13 14 6 6 11 11 7 5 6 4 6 10 10 5 11 15 19 7 14 5 11 10 4 22 21 49 47 46 39 20 35 5 6 9 15 14 10 13 14 16 10
25 20 10 8 7 8 11 9 14 8 8 6 8 8 8 12 8 8 12 13 21 22 12 1 13 13 12 15 26 38 41 41 36 17 27 45 29 27 11 9 9 15 19 16 11
24 20 17 9 5 9 12 10 13 16 10 6 3 6 9 12 11 8 5 10 15 19 15 4 7 18 29 17 14 13 39 45 55 42 23 30 33 18 13 8 6 15 20 18 12
22 19 15 11 12 9 11 14 13 12 17 3 12 8 8 15 13 17 12 8 7 15 15 5 5 12 28 36 27 23 16 40 50 54 46 35 31 25 13 15 16 13 19 16 13
22 20 19 12 12 9 9 11 11 14 5 12 17 17 12 11 15 16 14 11 10 12 15 18 4 13 7 18 18 24 39 25 37 42 49 41 46 33 23 17 17 17 19 11 13

GFSSW_700_spd_030.txt.gz
Wind_Speed
32 33 34 35 35 37 38 39 40 40 40 37 37 41 44 45 42 42 35 27 24 27 22 21 24 25 24 24 25 22 21 24 24 21 18 10 9 14 17 17 15 17 28 21 26
30 32 33 34 36 38 41 42 43 42 43 43 41 40 40 44 47 49 43 37 32 32 32 23 26 26 28 28 24 26 27 30 28 24 23 21 21 20 22 20 20 19 22 23 27
32 33 34 36 37 38 39 40 41 43 44 45 45 45 42 41 44 49 46 43 39 36 34 33 31 33 33 28 29 28 41 37 32 28 26 30 29 25 27 27 29 23 22 24 28
31 32 33 35 37 39 41 41 43 42 42 44 45 47 45 45 38 40 45 48 46 46 41 42 42 43 39 36 34 40 41 36 35 36 33 29 30 32 33 30 31 28 28 29 32
30 31 32 33 34 35 37 40 43 44 46 46 46 46 44 47 52 46 42 38 39 45 47 50 51 49 45 37 35 44 38 38 36 36 36 34 35 42 36 33 33 30 32 35 39
25 27 27 28 30 31 32 35 37 40 43 46 47 48 47 53 51 47 46 44 42 36 38 40 49 50 43 40 44 39 39 41 38 38 35 36 40 37 35 34 35 32 32 39 44
23 23 24 24 24 25 27 31 33 36 36 39 42 47 53 54 43 44 41 44 46 45 43 38 37 46 43 38 39 39 40 40 34 34 38 37 45 41 34 35 35 34 36 43 43
23 22 22 23 23 23 23 24 28 30 33 35 36 40 54 47 45 43 42 40 38 44 47 46 39 42 48 32 35 33 39 43 39 35 34 29 48 39 30 29 30 32 39 42 41
22 23 25 27 28 28 27 27 26 23 26 29 33 35 47 45 43 38 42 44 43 41 39 44 38 40 38 37 35 42 48 48 38 33 31 34 51 37 29 28 27 37 41 44 41
23 24 26 26 26 26 27 28 29 29 24 23 28 30 29 28 18 18 32 42 43 46 42 43 42 33 37 41 58 46 39 43 43 34 27 36 44 36 32 33 31 36 39 39 33
23 23 22 23 24 26 25 27 27 28 25 23 22 31 26 18 19 15 26 26 40 46 53 48 42 50 65 54 45 42 45 44 36 34 35 39 42 37 34 34 36 36 37 39 31
22 22 22 22 23 24 24 24 24 27 33 26 26 30 28 23 36 32 28 24 28 48 41 36 52 73 45 43 41 42 42 46 39 34 36 37 42 40 39 42 39 40 38 32 21
22 23 23 23 23 23 23 23 23 25 30 28 25 19 13 20 28 26 32 28 25 27 43 56 69 45 46 44 43 47 45 39 40 32 32 36 44 46 41 39 36 34 33 29 23
24 25 26 25 26 25 26 23 20 17 16 14 1 2 5 3 9 10 30 31 26 33 32 46 53 38 48 49 50 48 35 34 37 32 41 35 36 45 34 36 33 33 28 24 22
29 30 27 26 25 24 22 17 13 8 6 1 3 4 3 2 8 1 13 25 37 31 24 46 43 51 45 62 45 53 35 33 32 35 38 40 36 43 29 34 33 27 23 21 22
32 27 27 25 24 20 16 11 7 5 10 2 4 3 6 6 6 7 7 15 23 33 31 37 25 36 59 35 43 34 25 25 26 30 29 37 36 43 42 41 33 23 19 20 25
29 27 25 23 22 16 13 6 6 11 3 3 6 9 11 11 10 10 6 14 19 32 41 30 40 23 26 41 36 38 33 15 17 19 18 28 29 35 37 24 28 19 14 23 22
28 28 24 22 20 13 11 3 9 6 8 16 13 17 16 9 11 9 13 11 21 31 36 34 30 41 30 46 39 48 44 24 19 15 16 27 14 25 18 27 27 23 15 21 21
27 27 22 23 22 9 9 3 8 9 9 12 17 16 16 10 12 11 12 19 6 27 29 31 39 30 29 37 41 42 46 38 15 15 9 20 23 26 23 13 19 19 22 24 24
27 25 21 19 12 4 6 6 7 10 13 14 16 13 15 12 12 12 8 16 5 12 4 15 17 31 45 34 38 40 38 34 30 18 16 14 14 15 5 11 15 19 23 22 26
25 19 22 18 11 6 6 7 11 11 12 8 10 13 16 18 18 14 7 10 7 5 22 11 8 26 37 38 43 37 43 34 31 20 14 7 11 12 13 10 17 17 18 23 22
24 15 18 14 13 13 10 11 13 11 11 12 10 9 11 10 12 7 5 6 15 10 14 15 11 18 37 35 35 40 33 41 26 26 17 10 7 4 7 9 19 13 21 22 19
24 18 17 13 7 11 13 10 13 14 13 9 10 8 11 11 8 5 5 9 15 10 2 20 14 16 20 32 30 39 34 41 24 26 28 15 4 9 8 12 16 13 19 18 16
23 17 16 14 11 13 14 7 11 14 10 13 12 9 11 9 8 8 10 9 5 9 9 6 22 21 9 34 27 36 35 36 35 19 18 24 18 7 10 8 10 9 16 18 15
20 16 17 13 13 14 11 12 13 13 10 11 7 9 14 11 15 11 10 13 7 8 5 2 25 28 14 6 5 14 36 33 38 31 25 18 26 16 15 5 3 9 18 20 15
18 20 19 15 14 13 10 7 11 12 16 7 11 16 16 17 16 20 17 12 8 2 5 3 5 25 24 13 6 8 16 34 30 33 27 21 22 17 17 12 2 2 23 23 15
21 21 22 18 15 12 9 10 14 16 9 9 16 17 15 13 14 16 17 15 13 10 9 5 3 16 28 19 8 13 17 25 32 29 28 32 28 13 10 12 3 1 26 24 15

GFSSW_700_spd_033.txt.gz
Wind_Speed
31 32 33 34 35 37 38 39 40 41 40 40 40 38 36 40 44 44 40 34 28 26 24 18 19 23 24 23 22 18 26 29 26 24 23 20 19 16 16 16 16 16 19 21 22
31 32 33 35 36 37 38 40 41 42 43 44 44 43 39 39 41 48 44 42 36 33 27 25 21 25 30 25 26 27 30 30 26 24 25 25 22 19 22 19 21 22 20 19 18
31 33 35 36 37 39 40 41 42 43 44 46 47 47 45 43 41 41 45 49 47 39 33 30 25 23 27 28 28 30 39 30 28 27 28 33 35 31 30 31 26 28 26 24 25
27 29 31 33 36 38 40 42 45 45 46 46 46 46 47 44 32 34 41 43 48 46 40 38 35 33 34 34 32 38 38 36 35 36 37 37 35 38 37 35 30 30 28 25 27
25 26 27 28 31 34 37 39 40 42 45 47 47 46 45 46 50 45 37 34 35 44 46 46 44 40 42 38 35 43 41 41 42 40 41 40 43 43 40 36 33 33 30 27 28
21 21 22 22 23 25 28 32 35 39 40 41 43 45 45 51 45 47 51 46 42 35 32 45 51 43 45 44 45 46 47 48 46 45 44 43 45 40 40 38 38 35 33 30 31
24 23 21 20 19 20 20 21 23 26 30 35 40 42 49 51 42 45 46 44 46 48 43 34 36 36 41 50 48 48 49 51 53 46 44 41 51 48 41 37 39 37 33 32 30
25 25 24 24 24 24 24 24 22 21 21 24 27 34 49 43 40 43 41 43 42 47 47 44 25 35 39 34 38 46 47 52 51 45 43 38 56 41 37 36 34 33 33 33 30
24 25 25 27 28 28 28 27 26 25 24 21 22 28 34 32 33 38 39 41 42 42 43 46 44 36 31 38 36 43 50 55 45 40 41 42 55 41 35 37 37 36 31 30 31
25 25 25 25 24 24 23 23 25 26 27 23 19 18 14 19 12 13 14 31 39 42 38 42 43 34 36 42 52 54 49 48 49 43 40 44 50 43 37 37 36 38 35 35 34
26 26 25 25 25 24 23 21 17 21 13 12 15 23 16 13 17 17 14 13 21 35 40 33 34 46 60 57 56 52 35 42 46 40 37 45 52 42 38 35 35 34 34 36 34
23 24 25 26 26 25 24 20 21 25 34 26 30 33 31 27 30 26 22 19 19 28 30 37 49 70 44 44 44 45 45 47 43 39 40 42 43 42 41 40 38 38 38 38 37
25 27 28 26 25 24 21 22 22 22 26 31 22 24 24 21 28 27 26 29 27 27 34 46 62 39 47 47 42 47 46 45 44 35 35 40 46 47 44 43 43 43 42 37 34
28 27 26 23 21 21 14 24 18 15 17 22 6 4 6 7 12 14 20 29 33 38 29 39 48 46 46 49 49 51 44 39 36 34 36 33 34 51 42 39 38 37 32 30 25
28 25 26 24 20 16 15 13 10 5 6 2 5 5 6 7 7 3 12 21 30 33 31 47 42 51 51 57 46 58 35 36 34 32 36 41 33 48 33 36 35 30 29 29 25
30 27 27 25 21 16 12 9 5 5 10 3 5 3 9 9 6 9 7 13 17 28 37 41 37 39 56 50 40 41 38 36 32 34 28 42 34 48 42 40 34 30 26 22 23
30 28 29 23 21 17 12 5 6 8 3 6 7 10 9 13 12 12 13 13 19 18 33 42 41 38 39 44 46 38 41 26 25 27 27 32 33 45 36 33 30 29 27 17 18
31 28 28 25 24 8 8 1 7 12 13 17 14 16 17 14 15 9 15 18 22 23 28 39 39 44 44 42 56 51 50 30 32 14 22 35 37 41 27 29 30 23 15 15 21
31 29 21 22 18 7 6 7 12 14 15 16 17 18 19 17 15 16 17 15 16 17 12 29 42 37 46 33 40 57 49 59 34 31 29 28 27 23 25 22 16 20 24 19 18
27 16 16 19 15 8 8 7 12 13 16 18 16 12 19 15 10 14 13 11 13 18 14 22 19 46 38 43 38 50 52 40 46 28 24 20 19 14 8 9 16 18 19 25 21
23 11 19 15 12 10 6 9 14 13 14 15 19 16 17 18 19 20 18 12 16 20 17 12 14 26 46 51 44 48 44 51 39 35 17 16 15 16 15 15 8 16 21 25 23
17 7 16 15 12 12 10 14 14 14 16 15 13 15 13 12 14 17 9 8 13 16 14 16 13 26 34 38 43 47 44 47 33 35 32 14 11 4 6 10 11 14 18 24 23
15 10 20 12 10 13 13 16 12 16 17 15 16 14 15 16 11 6 6 9 9 14 4 12 18 21 8 26 44 45 49 41 44 27 33 17 15 5 5 9 16 14 18 24 24
15 13 10 11 16 16 15 11 14 13 15 12 20 16 12 15 10 8 13 11 17 16 14 12 22 24 10 16 37 46 48 42 43 30 27 34 11 9 10 15 12 13 22 22 22
17 10 17 12 14 18 14 20 16 16 13 14 12 14 17 18 17 14 7 16 14 18 13 8 30 39 20 14 14 42 39 42 41 36 28 30 20 11 15 13 11 9 18 24 25
21 18 14 17 13 15 14 13 15 17 18 17 16 17 18 18 17 19 17 13 13 4 10 7 22 27 25 27 19 14 40 41 36 40 26 17 25 20 11 7 5 9 18 23 22
28 26 24 20 13 15 11 15 20 21 11 12 19 20 19 19 21 22 21 20 18 18 16 14 11 14 11 21 17 17 28 33 31 39 30 22 16 17 14 8 7 6 18 22 21